[TLELIST] Archives

 

[list_settings.list_name] Current TLEs

May 7th 2011 PST

HST 1 20580U 90037B 11126.83708293 .00001663 00000-0 11338-3 0 7606 2 20580 028.4716 286.5665 0003297 041.7639 318.3020 15.01338046953436 ISS (ZARYA) 1 25544U 98067A 11127.38812500 .00031884 00000-0 21699-3 0 3111 2 25544 051.6454 010.2599 0001988 243.0469 098.7180 15.74594288714476 CXO 1 25867U 99040B 11129.29166667 .00000219 00000-0 00000+0 0 6030 2 25867 069.0853 034.3204 8579098 276.4568 355.3520 00.37806954 7621 ____________________________________________________________________ These 2-Line ...Continue Reading

[list_settings.list_name] Current TLEs

May 6th 2011 PST

HST 1 20580U 90037B 11125.70697983 .00001804 00000-0 12407-3 0 7597 2 20580 028.4708 293.9365 0003273 028.8442 331.2236 15.01335561953261 ISS (ZARYA) 1 25544U 98067A 11126.43608796 .00041598 00000-0 28226-3 0 3066 2 25544 051.6462 015.1508 0002775 222.3600 119.2563 15.74528827714325 CXO 1 25867U 99040B 11126.66666667 .00000139 00000-0 00000+0 0 6023 2 25867 069.0719 034.5413 8574892 276.4357 357.9517 00.37801140 7614 ____________________________________________________________________ These 2-Line ...Continue Reading

[list_settings.list_name] Current TLEs

May 5th 2011 PST

HST 1 20580U 90037B 11123.84563713 .00001993 00000-0 13844-3 0 7587 2 20580 028.4711 306.0920 0003234 008.7594 351.3362 15.01330296952981 ISS (ZARYA) 1 25544U 98067A 11125.19424318 .00045266 00000-0 30308-3 0 3019 2 25544 051.6462 021.5305 0002237 186.7136 310.8650 15.74800216714131 CXO 1 25867U 99040B 11126.66666667 .00000139 00000-0 00000+0 0 6023 2 25867 069.0719 034.5413 8574892 276.4357 357.9517 00.37801140 7614 ____________________________________________________________________ These 2-Line ...Continue Reading

[list_settings.list_name] Current TLEs

May 4th 2011 PST

HST 1 20580U 90037B 11123.84563713 .00001993 00000-0 13844-3 0 7587 2 20580 028.4711 306.0920 0003234 008.7594 351.3362 15.01330296952981 ISS (ZARYA) 1 25544U 98067A 11124.24282929 .00047372 00000-0 31809-3 0 2964 2 25544 051.6475 026.4184 0002569 174.1891 326.0756 15.74713258713988 CXO 1 25867U 99040B 11124.00000000 .00000142 00000-0 00000+0 0 6015 2 25867 069.0623 034.7035 8572583 276.4488 354.8525 00.37801689 7602 ____________________________________________________________________ These 2-Line ...Continue Reading

[list_settings.list_name] Current TLEs

May 3rd 2011 PST

HST 1 20580U 90037B 11122.25018607 .00001383 00000-0 92231-4 0 7578 2 20580 028.4713 316.5186 0003482 352.1745 007.8818 15.01322555952744 ISS (ZARYA) 1 25544U 98067A 11123.15507225 .00047320 00000-0 31919-3 0 2912 2 25544 051.6477 032.0111 0002558 170.1047 279.7367 15.74608426713814 CXO 1 25867U 99040B 11124.00000000 .00000142 00000-0 00000+0 0 6015 2 25867 069.0623 034.7035 8572583 276.4488 354.8525 00.37801689 7602 ____________________________________________________________________ These 2-Line ...Continue Reading

[list_settings.list_name] Current TLEs

May 2nd 2011 PST

HST 1 20580U 90037B 11122.25018607 .00001383 00000-0 92231-4 0 7578 2 20580 028.4713 316.5186 0003482 352.1745 007.8818 15.01322555952744 ISS (ZARYA) 1 25544U 98067A 11122.27580376 .00077643 00000-0 52058-3 0 2864 2 25544 051.6477 036.5316 0002437 172.8978 329.5089 15.74545396713673 CXO 1 25867U 99040B 11124.00000000 .00000142 00000-0 00000+0 0 6015 2 25867 069.0623 034.7035 8572583 276.4488 354.8525 00.37801689 7602 ____________________________________________________________________ These 2-Line ...Continue Reading

[list_settings.list_name] Current TLEs

May 1st 2011 PST

HST 1 20580U 90037B 11120.92064018 .00001355 00000-0 90098-4 0 7564 2 20580 028.4711 325.2015 0003452 336.7584 023.2871 15.01319071952544 ISS (ZARYA) 1 25544U 98067A 11121.26116332 .00134784 00000-0 89761-3 0 2815 2 25544 051.6515 041.7383 0002360 170.1992 337.2394 15.74465260713519 CXO 1 25867U 99040B 11121.37500000 .00000195 00000-0 00000+0 0 6004 2 25867 069.0449 034.8781 8572922 276.4464 357.4671 00.37807263 7591 ____________________________________________________________________ These 2-Line ...Continue Reading

[list_settings.list_name] Current TLEs

April 30th 2011 PST

HST 1 20580U 90037B 11119.98995651 .00001322 00000-0 87590-4 0 7550 2 20580 028.4714 331.2790 0003436 326.3771 033.6626 15.01316621952405 ISS (ZARYA) 1 25544U 98067A 11120.30814929 .00030989 00000-0 21333-3 0 2752 2 25544 051.6445 046.6368 0003027 165.8098 336.5001 15.74341558713360 CXO 1 25867U 99040B 11121.37500000 .00000195 00000-0 00000+0 0 6004 2 25867 069.0449 034.8781 8572922 276.4464 357.4671 00.37807263 7591 ____________________________________________________________________ These 2-Line ...Continue Reading

[list_settings.list_name] Current TLEs

April 29th 2011 PST

HST 1 20580U 90037B 11118.99279461 .00001299 00000-0 85816-4 0 7545 2 20580 028.4715 337.7902 0003416 316.5512 043.4871 15.01314156952259 ISS (ZARYA) 1 25544U 98067A 11119.29163461 .00061384 00000-0 41812-3 0 2696 2 25544 051.6455 051.8600 0002536 155.0277 342.3289 15.74273260713202 CXO 1 25867U 99040B 11116.13995573 .00000000 00000-0 10000-3 0 5992 2 25867 069.0150 035.1519 8568626 276.4044 004.8989 00.37808207 7575 ____________________________________________________________________ These 2-Line ...Continue Reading

[list_settings.list_name] Current TLEs

April 28th 2011 PST

HST 1 20580U 90037B 11118.06210884 .00001309 00000-0 86614-4 0 7535 2 20580 028.4717 343.8766 0003309 306.0738 053.9589 15.01312227952116 ISS (ZARYA) 1 25544U 98067A 11118.37871745 .00026987 00000-0 18345-3 0 2656 2 25544 051.6447 056.5491 0002648 157.4757 202.6884 15.74202879117223 CXO 1 25867U 99040B 11118.70833333 .00000249 00000-0 00000+0 0 5970 2 25867 069.0245 035.0669 8572516 276.4218 354.4782 00.37808381 7580 ____________________________________________________________________ These 2-Line ...Continue Reading
  • This mailing list is a public mailing list - anyone may join or leave, at any time.
  • This mailing list is announce-only.

International Space Station (ISS) / Hubble Space Telescope (HST) / Chandra X-Ray Observatory Orbital Data via EMAIL

Privacy Policy:

Private list